Simultaneous Nadir Overpasses (SNOs) Predictions

Prediction of SNOs between AURA and NPP Satellite Orbit:

Table of predicted SNOs for the next 14.0 days since TLE Epoch: 6/11/2022
Index Date (AURA) Time (AURA) Lat,Lon (AURA) SZA (AURA ) Date (NPP) Time (NPP) Lat,Lon (NPP) SZA (NPP ) Distance(km) Time Diff (sec)
1 06/13/2022 03:41:53 -79.37,-159.48 110.24 06/13/2022 03:41:21 -79.37,-159.51 110.21 0.75 32
2 06/13/2022 04:31:11 79.67, 10.26 69.32 06/13/2022 04:31:56 79.68, 10.38 69.26 2.60 45
3 06/15/2022 19:58:21 -79.52, -42.61 110.56 06/15/2022 19:58:15 -79.53, -42.50 110.57 2.43 6
4 06/15/2022 20:47:42 79.70, 126.33 69.17 06/15/2022 20:48:54 79.70, 126.31 69.12 0.45 72
5 06/18/2022 11:25:31 79.26, -96.14 69.79 06/18/2022 11:24:35 79.26, -96.19 69.84 1.10 56
6 06/18/2022 12:14:50 -79.58, 73.65 110.69 06/18/2022 12:15:11 -79.58, 73.70 110.72 1.06 21
7 06/21/2022 03:41:59 79.38, 20.52 69.61 06/21/2022 03:41:30 79.38, 20.49 69.63 0.61 29
8 06/21/2022 04:31:19 -79.66,-169.90 110.82 06/21/2022 04:32:07 -79.66,-169.83 110.86 1.53 48
9 06/23/2022 19:58:26 79.52, 137.37 69.44 06/23/2022 19:58:24 79.52, 137.45 69.43 1.69 2



Historial Predications of SNOs between AURA and NPP
